This is the latest recevied weather packets stored in our database for station/object F5ZQC-13. If no packets are shown the sender has not sent any weather packets the latest 10 day(s).
| Time | Temp. | Humidity | Pressure | Rain* | Wind** | Luminosity | Snow |
|---|---|---|---|---|---|---|---|
| 1777507253 | 17.22° C | 55% | 1010.4 hPa | 0 mm | - | - | - |
| 1777507131 | 17.22° C | 56% | 1010.3 hPa | 0 mm | - | - | - |
| 1777507009 | 17.22° C | 54% | 1010.6 hPa | 0 mm | - | - | - |
| 1777506886 | 17.22° C | 55% | 1010.6 hPa | 0 mm | - | - | - |
| 1777506763 | 17.22° C | 54% | 1010.2 hPa | 0 mm | - | - | - |
| 1777506641 | 17.22° C | 57% | 1010.3 hPa | 0 mm | - | - | - |
| 1777506366 | 17.22° C | 56% | 1010.3 hPa | 0 mm | - | - | - |
| 1777506335 | 17.22° C | 56% | 1010.3 hPa | 0 mm | - | - | - |
| 1777506305 | 17.22° C | 56% | 1010.5 hPa | 0 mm | - | - | - |
| 1777506186 | 17.22° C | 56% | 1010.1 hPa | 0 mm | - | - | - |
| 1777506060 | 17.22° C | 55% | 1010.5 hPa | 0 mm | - | - | - |
| 1777505818 | 17.22° C | 54% | 1010.5 hPa | 0 mm | - | - | - |
| 1777505754 | 17.22° C | 56% | 1010.3 hPa | 0 mm | - | - | - |
| 1777505577 | 17.22° C | 56% | 1010.3 hPa | 0 mm | - | - | - |
| 1777505455 | 17.22° C | 56% | 1010 hPa | 0 mm | - | - | - |
| 1777505333 | 17.22° C | 56% | 1010.1 hPa | 0 mm | - | - | - |
| 1777505210 | 17.22° C | 56% | 1010 hPa | 0 mm | - | - | - |
| 1777505055 | 17.78° C | 56% | 1010.1 hPa | 0 mm | - | - | - |
| 1777504931 | 17.78° C | 56% | 1010.4 hPa | 0 mm | - | - | - |
| 1777504809 | 17.78° C | 52% | 1010 hPa | 0 mm | - | - | - |
| 1777504720 | 17.78° C | 56% | 1010.3 hPa | 0 mm | - | - | - |
| 1777504687 | 17.78° C | 56% | 1010.3 hPa | 0 mm | - | - | - |
| 1777504659 | 17.78° C | 56% | 1010.2 hPa | 0 mm | - | - | - |
| 1777504625 | 17.78° C | 56% | 1010.2 hPa | 0 mm | - | - | - |
| 1777504595 | 17.78° C | 57% | 1010.2 hPa | 0 mm | - | - | - |
* Rain since midnight (hover to see other rain measurements)
** Current wind speed in m/s (hover to see current wind gust speed)